Tracking 22438 objects as of 25-Feb-2021
HD Live streaming from Space Station
objects crossing your sky now

CE-SAT IIB

Track CE-SAT IIB now!
10-day predictions


NORAD ID: 46818
Int'l Code: 2020-077F
Perigee: 513.8 km
Apogee: 531.0 km
Inclination: 97.5 °
Period: 94.9 minutes
Semi major axis: 6893 km
RCS: Unknown
Launch date: October 28, 2020
Source: Japan (JPN)
Launch site: Rocket Lab Launch Complex (RLLC)
aabbcc
Your satellite tracking list
Your tracking list is empty




NASA's NSSDC Master Catalog

Two Line Element Set (TLE):
1 46818U 20077F   21055.81493177  .00000738  00000-0  40832-4 0  9995
2 46818  97.4840 120.8708 0012472 250.6886 218.5783 15.16895057 18020
Source of the keplerian elements: AFSPC